Weather reports worldwide

Advertisment
Strathallan, United Kingdom (3144): temperature & dewpoint: 09.12.2019 17:00:00 - 15.12.2019 17:00:00 (GMT)Strathallan, United Kingdom (3144): temperature -20cm & temperature -100cm: 09.12.2019 17:00:00 - 15.12.2019 17:00:00 (GMT)Strathallan, United Kingdom (3144): wind speed & gusts: 09.12.2019 17:00:00 - 15.12.2019 17:00:00 (GMT)Strathallan, United Kingdom (3144): wind direction: 09.12.2019 17:00:00 - 15.12.2019 17:00:00 (GMT)Strathallan, United Kingdom (3144): reduced air pressure: 09.12.2019 17:00:00 - 15.12.2019 17:00:00 (GMT)Strathallan, United Kingdom (3144): visibility: 09.12.2019 17:00:00 - 15.12.2019 17:00:00 (GMT)Strathallan, United Kingdom (3144): precipitation: 09.12.2019 17:00:00 - 15.12.2019 17:00:00 (GMT)
Date & Time tt [°C] td [°C] tt -20cm [°C] tt -100cm [°C] ff [km/h] ff [kn] fx [km/h] fx [kn] dd ppp [hPa] vv [km] rr [mm]
15.12.2019 17:00:00 3,0 0,4 - - 13 7 - - SW 987,1 45 0,0
15.12.2019 16:00:00 3,9 1,3 - - 18 10 - - SW 986,4 40 0,0
15.12.2019 15:00:00 3,8 1,9 - - 13 7 - - WSW 985,9 22 0,0
15.12.2019 14:00:00 3,8 2,0 - - 16 9 - - SW 985,7 50 0,0
15.12.2019 13:00:00 3,6 2,1 - - 22 12 - - WSW 984,9 50 0,0
15.12.2019 12:00:00 2,6 1,3 - - 24 13 - - SW 984,2 50 0,0
15.12.2019 11:00:00 2,7 1,6 - - 18 10 - - WSW 983,5 50 0,0
15.12.2019 10:00:00 2,2 0,9 - - 21 11 - - SW 982,5 50 0,0
15.12.2019 09:00:00 1,8 0,9 4,2 7,0 22 12 - - SW 981,3 50 0,0
15.12.2019 08:00:00 1,9 1,1 - - 18 10 - - SW 980,4 50 0,0
15.12.2019 07:00:00 1,6 0,9 - - 11 6 - - W 979,5 50 0,0
15.12.2019 06:00:00 1,3 0,7 - - 9 5 - - W 978,8 50 0,0
15.12.2019 05:00:00 1,6 1,2 - - 13 7 - - W 977,9 50 0,0
15.12.2019 04:00:00 1,3 0,7 - - 15 8 - - WSW 977,4 50 0,0
15.12.2019 03:00:00 1,9 1,1 - - 13 7 - - WSW 977,0 50 0,0
15.12.2019 02:00:00 2,2 1,5 - - 11 6 - - SW 977,2 50 0,0
15.12.2019 01:00:00 2,4 1,6 - - 18 10 - - SW 976,9 50 0,2
15.12.2019 00:00:00 2,3 1,3 - - 15 8 50 27 SW 976,9 35 0,2
14.12.2019 23:00:00 3,0 1,9 - - 28 15 52 28 SW 976,4 45 0,0
14.12.2019 22:00:00 3,1 2,0 - - 31 17 63 34 SW 975,6 28 0,4
14.12.2019 21:00:00 2,8 1,7 - - 41 22 63 34 SW 974,5 8 2,0
14.12.2019 20:00:00 2,9 1,6 - - 35 19 59 32 SW 974,5 2,6 1,6
14.12.2019 19:00:00 3,2 1,4 - - 31 17 61 33 SW 974,8 40 0,6
14.12.2019 18:00:00 3,4 1,0 - - 31 17 72 39 SW 975,3 50 0,0
14.12.2019 17:00:00 3,8 1,3 - - 34 18 68 37 WSW 975,6 50 0,2
14.12.2019 16:00:00 4,0 2,2 - - 24 13 - - WSW 975,4 9 0,8
14.12.2019 15:00:00 3,0 1,7 - - 24 13 50 27 SW 976,0 2,6 0,6
14.12.2019 14:00:00 3,6 2,3 - - 24 13 - - SW 975,4 25 0,0
14.12.2019 13:00:00 2,6 1,6 - - 22 12 - - SW 975,9 6 0,2
14.12.2019 12:00:00 3,1 2,3 - - 18 10 - - WSW 975,5 50 0,2
14.12.2019 11:00:00 3,7 2,2 - - 21 11 - - SW 975,0 20 0,0
14.12.2019 10:00:00 3,5 2,2 - - 21 11 - - WSW 974,3 45 0,0
14.12.2019 09:00:00 3,2 2,2 4,4 7,0 18 10 - - SW 974,1 30 0,0
14.12.2019 08:00:00 3,1 1,8 - - 21 11 - - SW 973,5 50 0,0
14.12.2019 07:00:00 3,1 1,9 - - 18 10 - - SW 972,9 45 0,0
14.12.2019 06:00:00 2,9 1,9 - - 13 7 - - WSW 972,7 50 0,0
14.12.2019 05:00:00 2,9 1,9 - - 13 7 - - WSW 972,4 50 0,0
14.12.2019 04:00:00 2,1 1,4 - - 9 5 - - W 972,1 50 0,0
14.12.2019 03:00:00 2,0 1,3 - - 13 7 - - WSW 972,1 50 0,0
14.12.2019 02:00:00 2,2 1,8 - - 15 8 - - WSW 971,9 14 0,0
14.12.2019 01:00:00 2,1 1,5 - - 15 8 - - WSW 971,8 45 0,0
14.12.2019 00:00:00 1,5 0,4 - - 13 7 - - W 971,9 50 0,0
13.12.2019 23:00:00 1,5 0,5 - - 9 5 - - WSW 971,8 50 0,0
13.12.2019 22:00:00 1,6 0,9 - - 5 3 - - NW 972,2 50 0,0
13.12.2019 21:00:00 2,0 1,0 - - 11 6 - - SW 972,3 50 0,0
13.12.2019 20:00:00 1,3 0,0 - - 5 3 - - SW 972,8 50 0,0
13.12.2019 19:00:00 2,0 0,3 - - 11 6 - - SW 973,0 50 0,0
13.12.2019 18:00:00 3,3 0,7 - - 13 7 - - WSW 973,1 50 0,0
13.12.2019 17:00:00 4,0 1,1 - - 11 6 - - WSW 973,3 50 0,0
13.12.2019 16:00:00 5,8 1,8 - - 16 9 - - W 973,4 50 0,0
13.12.2019 15:00:00 6,4 2,5 - - 11 6 - - WSW 973,5 50 0,0
13.12.2019 14:00:00 6,8 2,3 - - 13 7 - - W 973,2 50 0,0
13.12.2019 13:00:00 7,0 2,7 - - 11 6 - - WSW 973,1 50 0,0
13.12.2019 12:00:00 6,8 2,2 - - 4 2 - - SW 972,5 50 0,0
13.12.2019 11:00:00 6,8 1,7 - - 15 8 - - WNW 972,2 50 0,0
13.12.2019 10:00:00 6,8 1,8 - - 16 9 - - WNW 971,9 50 0,0
13.12.2019 09:00:00 6,8 1,9 4,7 7,0 16 9 - - WNW 971,5 50 0,0
13.12.2019 08:00:00 6,7 2,1 - - 16 9 - - WNW 970,8 50 0,0
13.12.2019 07:00:00 6,3 2,2 - - 13 7 - - W 970,3 50 0,2
13.12.2019 06:00:00 4,1 2,6 - - 5 3 - - WNW 969,8 50 0,0
13.12.2019 05:00:00 3,5 2,9 - - 5 3 - - WSW 969,5 50 0,0
13.12.2019 04:00:00 3,2 2,9 - - 5 3 - - SW 969,6 17 0,0
13.12.2019 03:00:00 3,5 3,2 - - 4 2 - - SW 969,6 16 0,0
13.12.2019 02:00:00 4,0 3,7 - - 8 4 - - W 969,7 14 0,0
13.12.2019 01:00:00 3,8 3,6 - - 5 3 - - SW 969,9 6 0,0
13.12.2019 00:00:00 3,7 3,5 - - 5 3 - - WSW 970,4 3,1 0,0
12.12.2019 23:00:00 3,7 3,3 - - 4 2 - - SW 970,9 1,6 0,0
12.12.2019 22:00:00 3,8 3,3 - - 5 3 - - NNE 971,6 5 0,0
12.12.2019 21:00:00 3,7 3,1 - - 9 5 - - NNE 972,6 14 0,0
12.12.2019 20:00:00 3,5 2,8 - - 9 5 - - NE 973,7 9 0,0
12.12.2019 19:00:00 3,5 2,4 - - 9 5 - - NNE 974,7 25 0,0
12.12.2019 18:00:00 3,4 2,2 - - 9 5 - - NE 975,8 35 0,0
12.12.2019 17:00:00 3,4 2,2 - - 9 5 - - NE 977,1 25 0,0
12.12.2019 16:00:00 3,7 2,1 - - 8 4 - - NE 978,5 35 0,0
12.12.2019 15:00:00 3,8 2,2 - - 11 6 - - E 979,7 45 0,0
12.12.2019 14:00:00 4,0 2,6 - - 9 5 - - ENE 980,8 45 0,0
12.12.2019 13:00:00 3,9 2,7 - - 4 2 - - NNE 982,1 30 0,0
12.12.2019 12:00:00 3,6 2,4 - - 5 3 - - NNE 983,4 27 0,0
12.12.2019 11:00:00 3,8 2,9 - - 2 1 - - NE 984,6 28 0,0
12.12.2019 10:00:00 3,0 1,9 - - 2 1 - - NW 985,6 30 0,0
12.12.2019 09:00:00 2,3 1,5 4,7 7,0 5 3 - - NW 986,1 23 0,0
12.12.2019 08:00:00 3,4 1,5 - - 9 5 - - W 987,0 18 0,0
12.12.2019 07:00:00 3,4 1,2 - - 11 6 - - WSW 987,6 28 0,0
12.12.2019 06:00:00 3,2 1,6 - - 9 5 - - WSW 988,3 40 0,0
12.12.2019 05:00:00 2,8 1,6 - - 5 3 - - W 988,9 28 0,0
12.12.2019 04:00:00 2,4 1,5 - - 8 4 - - WNW 989,4 50 0,2
12.12.2019 03:00:00 2,7 1,4 - - 15 8 - - SW 990,3 20 0,2
12.12.2019 02:00:00 3,3 1,2 - - 22 12 - - SW 990,9 45 0,0
12.12.2019 01:00:00 3,3 1,7 - - 11 6 - - WSW 991,6 40 0,0
12.12.2019 00:00:00 3,4 1,7 - - 21 11 - - SW 991,9 4,2 0,2
11.12.2019 23:00:00 3,5 2,3 - - 11 6 - - SW 992,4 11 0,2
11.12.2019 22:00:00 3,1 2,0 - - 16 9 - - SW 992,4 12 0,6
11.12.2019 21:00:00 3,4 2,2 - - 16 9 - - SW 992,7 25 0,4
11.12.2019 20:00:00 3,2 1,9 - - 13 7 - - SW 992,3 16 0,6
11.12.2019 19:00:00 3,7 2,2 - - 26 14 - - SW 992,0 40 0,2
11.12.2019 18:00:00 3,3 2,0 - - 21 11 46 25 SW 991,9 50 0,6
11.12.2019 17:00:00 3,3 2,0 - - 16 9 - - WSW 991,8 22 0,6
11.12.2019 16:00:00 3,3 1,7 - - 28 15 50 27 SW 991,3 14 0,2
11.12.2019 15:00:00 4,0 2,5 - - 21 11 - - WSW 991,4 15 0,8
11.12.2019 14:00:00 4,0 2,8 - - 21 11 - - SW 991,2 22 0,0
11.12.2019 13:00:00 3,1 2,3 - - 18 10 - - SW 991,7 5 1,4
11.12.2019 12:00:00 2,6 1,6 - - 26 14 48 26 SW 992,0 2,6 2,0
11.12.2019 11:00:00 5,1 2,1 - - 29 16 46 25 SW 991,5 11 0,2
11.12.2019 10:00:00 4,7 2,0 - - 22 12 50 27 SW 991,5 50 0,2
11.12.2019 09:00:00 4,5 1,7 5,4 7,2 28 15 46 25 SW 991,6 19 0,0
11.12.2019 08:00:00 4,9 1,5 - - 28 15 57 31 SSW 991,8 50 0,0
11.12.2019 07:00:00 5,3 1,9 - - 34 18 57 31 SW 991,4 30 0,0
11.12.2019 06:00:00 4,8 1,6 - - 31 17 54 29 SW 991,5 40 0,0
11.12.2019 05:00:00 4,5 2,4 - - 26 14 46 25 SW 992,2 17 0,6
11.12.2019 04:00:00 5,0 2,6 - - 24 13 - - SW 993,0 16 0,0
11.12.2019 03:00:00 3,2 2,1 - - 11 6 - - SW 993,4 16 0,2
11.12.2019 02:00:00 3,4 1,5 - - 26 14 61 33 SW 993,6 5 1,2
11.12.2019 01:00:00 3,6 2,3 - - 24 13 - - SW 993,0 30 0,8
11.12.2019 00:00:00 4,4 2,6 - - 21 11 - - SW 992,2 35 0,2
10.12.2019 23:00:00 4,7 3,0 - - 22 12 - - SW 991,0 23 1,8
10.12.2019 22:00:00 5,1 3,7 - - 24 13 - - SW 990,2 15 1,0
10.12.2019 21:00:00 4,6 3,2 - - 18 10 46 25 SW 989,1 35 1,0
10.12.2019 20:00:00 5,2 3,0 - - 22 12 48 26 SW 988,4 6 0,4
10.12.2019 19:00:00 5,2 3,4 - - 21 11 46 25 SW 987,2 22 1,0
10.12.2019 18:00:00 5,9 3,7 - - 21 11 - - WSW 985,7 16 0,0
10.12.2019 17:00:00 6,6 4,9 - - 26 14 46 25 SW 984,5 27 0,0
10.12.2019 16:00:00 8,0 4,5 - - 29 16 63 34 WSW 983,0 50 0,0
10.12.2019 15:00:00 12,1 9,5 - - 39 21 76 41 SW 980,0 20 2,0
10.12.2019 14:00:00 12,3 10,6 - - 35 19 63 34 SSW 980,6 6 2,0
10.12.2019 13:00:00 11,9 10,1 - - 28 15 65 35 SSW 982,7 8 1,8
10.12.2019 12:00:00 11,5 9,7 - - 28 15 57 31 SSW 984,8 45 1,2
10.12.2019 11:00:00 10,3 8,8 - - 22 12 48 26 SW 987,9 7 4,0
10.12.2019 10:00:00 10,0 8,2 - - 22 12 48 26 SW 989,9 6 2,6
10.12.2019 09:00:00 9,6 7,8 4,9 7,2 18 10 46 25 SW 992,7 11 3,6
10.12.2019 08:00:00 8,4 7,1 - - 15 8 - - SW 995,7 8 3,8
10.12.2019 07:00:00 7,8 6,5 - - 18 10 - - SW 998,5 5 3,0
10.12.2019 06:00:00 7,7 6,1 - - 21 11 - - SW 1000,8 5 2,2
10.12.2019 05:00:00 7,7 5,2 - - 18 10 - - S 1003,1 8 0,2
10.12.2019 04:00:00 7,1 4,1 - - 16 9 - - SSW 1006,1 24 0,0
10.12.2019 03:00:00 6,8 3,4 - - 11 6 - - SSW 1008,8 30 0,0
10.12.2019 02:00:00 6,1 2,9 - - 15 8 - - SW 1010,9 35 0,0
10.12.2019 01:00:00 5,7 2,8 - - 15 8 - - SW 1012,4 26 0,0
10.12.2019 00:00:00 4,1 2,4 - - 2 1 - - WSW 1013,5 19 0,0
09.12.2019 23:00:00 1,7 0,4 - - 2 1 - - WNW 1014,8 21 0,0
09.12.2019 22:00:00 2,2 0,5 - - 2 1 - - N 1015,9 29 0,0
09.12.2019 21:00:00 2,1 0,1 - - 2 1 - - W 1016,5 20 0,0
09.12.2019 20:00:00 1,8 -0,6 - - 5 3 - - WNW 1017,6 27 0,0
09.12.2019 19:00:00 1,9 -0,6 - - 2 1 - - WSW 1017,8 35 0,0
09.12.2019 18:00:00 1,9 -0,2 - - 8 4 - - W 1017,6 40 0,0
09.12.2019 17:00:00 1,0 -1,5 - - 9 5 - - WSW 1017,2 35 0,0

tt = temperature
td = dewpoint
tt -20cm = temperature -20cm
tt -100cm = temperature -100cm
ff = wind speed
fx = gusts
dd = wind direction
ppp = reduced air pressure
vv = visibility
rr = precipitation

Next stations